Wind_Speed
30 30 29 27 25 22 20 17 16 15 17 21 18 16 15 18 19 18 18 17 14 12 12 11 11 11 12 11 10 10 10 10 10 9 9 9 10 11 11 10 11 11 11 10
31 30 27 26 26 25 24 22 19 17 20 24 21 18 17 19 21 21 19 17 16 14 13 12 12 12 12 12 12 11 11 11 11 10 10 10 10 11 11 10 11 11 11 11
30 27 28 29 28 27 26 25 22 20 20 24 23 20 19 20 20 21 20 18 18 16 14 13 12 12 12 13 13 12 12 12 11 11 12 12 12 11 11 11 11 11 11 11
30 29 29 30 29 28 28 25 24 23 22 23 22 20 19 20 20 20 19 18 18 17 15 14 14 14 13 13 14 14 13 13 12 12 12 12 12 12 11 11 11 11 12 12
31 30 31 31 29 29 27 25 26 25 25 25 22 21 18 21 22 19 18 18 18 18 16 15 15 14 14 14 14 14 14 14 13 13 13 12 12 12 12 12 12 12 12 12
30 30 31 30 29 29 28 27 27 26 26 27 24 22 20 21 22 20 18 18 18 18 17 16 16 15 15 15 15 15 14 14 14 13 13 13 13 13 12 13 13 12 12 13
30 30 31 31 30 30 30 29 27 27 27 26 22 23 21 19 21 20 18 18 19 19 18 16 16 15 15 15 14 14 14 14 14 13 13 14 14 14 13 13 13 13 13 13
28 29 29 31 30 30 30 29 27 24 21 21 20 22 20 21 20 20 20 20 20 20 19 17 16 15 15 14 14 13 14 14 14 14 14 14 13 13 14 13 13 14 14 14
24 25 27 29 29 29 29 30 26 22 19 17 19 20 20 23 23 23 22 20 20 19 19 17 16 16 15 15 15 14 14 14 14 14 14 14 13 13 13 13 13 14 15 15
23 20 23 26 28 29 29 28 28 28 23 19 17 19 21 23 23 22 21 19 19 19 19 18 17 16 16 16 15 15 15 14 14 14 14 14 13 12 12 13 13 13 14 15
27 23 21 25 29 28 29 30 29 28 25 21 18 18 20 23 22 21 20 19 19 18 18 18 17 16 16 16 15 15 15 15 15 14 14 14 13 13 13 13 13 14 14 14
29 26 24 25 25 26 28 29 29 30 29 26 21 17 18 19 20 20 20 20 20 19 18 18 18 17 16 16 15 15 15 15 15 14 14 14 14 14 14 14 15 15 15 16
31 29 27 25 25 27 29 29 30 30 29 27 23 20 19 18 19 19 19 21 21 19 18 19 19 17 16 16 15 15 15 15 14 14 14 14 14 14 14 15 15 15 15 16
32 33 31 26 24 24 27 28 30 30 30 27 25 22 22 19 20 20 20 21 21 20 19 20 19 17 16 15 15 15 14 14 15 15 14 14 13 14 14 15 15 15 15 16
33 34 33 29 26 24 24 26 29 32 30 27 24 23 22 19 20 22 22 21 20 19 20 19 17 16 15 15 15 14 14 15 15 15 14 13 13 14 14 15 15 16 16 16
34 34 34 32 28 25 25 25 27 30 30 29 26 23 22 20 22 23 23 21 21 20 19 18 16 16 15 15 15 15 15 15 15 15 14 14 15 15 15 16 16 17 17 17
33 34 34 33 28 25 27 25 24 26 29 30 30 28 26 25 24 23 23 22 20 20 19 18 16 16 17 16 16 16 16 16 16 16 16 16 16 17 17 17 18 18 19 19
33 34 34 32 30 30 27 25 25 26 29 30 29 31 30 29 27 26 25 22 21 20 19 18 17 17 17 17 16 17 17 17 16 16 16 17 17 17 17 17 18 19 19 19
32 33 34 33 31 29 28 29 29 29 30 31 30 31 31 30 31 28 26 25 22 22 20 20 19 18 18 18 18 18 18 18 17 17 17 17 17 18 17 17 18 19 19 19
33 33 34 34 32 29 28 27 26 27 29 29 31 32 31 28 27 26 25 24 22 21 21 20 20 20 19 19 19 19 19 18 18 18 18 19 19 19 18 18 18 18 19 19
34 34 35 34 32 29 29 29 27 29 29 29 32 33 32 30 28 26 24 23 22 21 21 21 21 20 19 19 19 19 19 19 18 19 19 20 19 19 19 19 19 20 20 20
32 34 33 34 33 31 30 29 30 31 30 30 30 31 32 31 29 27 26 24 23 22 22 21 20 20 20 20 19 19 19 19 19 19 20 20 19 19 20 20 20 21 21 21
32 32 32 34 33 32 31 31 32 31 29 30 30 30 28 29 28 28 26 25 24 23 22 22 21 20 20 20 20 20 20 20 20 20 20 19 19 20 20 20 20 21 21 21
31 33 33 34 34 33 30 31 30 30 30 29 30 29 27 27 27 26 26 25 25 24 23 22 22 21 20 20 20 20 21 21 21 20 20 20 20 20 20 20 21 21 21 21
30 31 33 33 33 32 29 29 27 28 30 30 29 29 27 28 28 27 26 25 25 24 23 23 22 22 22 21 21 21 22 21 21 21 20 21 21 21 21 22 22 22 22 21
29 31 32 32 32 31 29 29 27 27 28 27 27 27 27 26 26 26 26 25 25 24 23 23 22 22 22 22 22 22 22 22 22 22 22 22 22 21 21 22 22 22 21 22
Wind_Direction
232 232 231 231 231 227 222 230 235 238 235 247 249 242 234 243 255 259 263 266 269 272 281 285 288 292 296 297 295 297 296 291 281 273 268 263 261 259 258 254 250 245 243 241
231 231 228 227 226 224 222 220 221 224 231 242 245 242 233 238 251 260 263 267 270 272 278 282 285 288 290 294 294 293 291 289 285 275 269 267 266 263 258 255 251 247 244 241
231 229 226 226 225 226 225 221 220 219 233 245 247 244 236 238 245 256 262 264 267 271 275 277 282 284 284 288 290 289 286 284 282 278 273 268 266 264 256 253 251 249 244 241
227 224 225 225 225 226 226 223 221 219 227 240 248 249 246 245 245 255 262 262 263 266 271 274 277 279 279 283 285 285 282 281 279 276 274 268 263 266 258 254 251 249 245 244
226 224 225 226 225 225 226 223 225 223 226 235 242 247 245 252 251 252 258 261 263 263 268 273 273 275 276 278 280 280 279 279 277 274 271 265 262 264 262 257 253 250 245 245
225 226 226 227 225 224 223 222 226 226 229 236 235 237 241 249 258 259 254 259 264 266 269 271 269 271 274 277 278 277 277 276 274 272 268 263 263 265 266 257 250 249 246 245
222 224 225 224 224 224 222 221 226 229 231 239 239 237 237 242 255 260 257 259 263 265 268 270 270 272 275 276 276 274 273 273 271 270 267 265 264 263 264 259 253 247 247 248
226 225 225 226 224 224 225 222 224 228 238 246 245 241 235 237 246 255 258 259 259 263 268 270 269 271 275 276 275 273 272 272 270 269 267 265 261 260 259 259 249 244 247 249
225 229 227 229 227 222 223 221 220 223 226 239 243 243 238 237 242 251 257 258 258 261 263 265 266 269 273 275 274 272 270 272 273 271 269 265 260 260 258 256 251 249 248 248
213 225 226 229 227 221 220 221 215 214 222 232 238 240 244 249 246 250 254 257 256 257 259 260 263 270 273 273 273 270 269 271 271 270 268 264 260 258 258 256 253 251 253 251
209 213 217 226 227 221 215 215 216 218 217 223 235 234 241 248 250 251 255 257 255 257 256 259 263 268 273 272 269 269 269 269 270 269 266 263 260 258 258 255 256 258 260 259
208 209 210 223 228 221 218 218 217 216 217 219 230 240 236 243 250 250 252 255 255 255 254 256 261 267 272 271 268 267 269 267 267 266 264 263 261 257 256 255 257 260 263 262
207 206 206 212 223 221 216 216 215 218 218 220 224 240 244 244 253 252 250 251 253 252 252 255 258 263 269 269 266 264 267 265 265 266 265 264 262 260 258 258 259 261 264 262
210 209 204 207 216 223 220 217 216 216 218 219 219 232 242 240 249 252 249 248 251 250 250 253 259 260 262 265 264 262 263 264 265 270 269 267 263 261 260 262 262 264 265 263
211 211 208 205 203 214 222 221 219 219 218 217 220 229 243 239 244 250 246 247 247 249 253 256 258 260 264 265 265 263 263 265 265 268 265 265 264 262 264 266 266 267 267 265
214 212 209 207 205 206 215 219 220 220 219 217 218 223 235 240 243 248 249 248 247 251 254 256 255 257 260 262 262 263 264 263 263 266 267 267 265 267 268 269 269 268 267 267
215 213 210 209 208 211 212 214 217 219 220 218 216 218 226 234 238 243 248 247 248 250 250 252 254 256 258 260 261 262 263 263 264 266 265 267 267 269 270 270 269 267 268 268
216 214 212 209 210 218 213 213 216 218 219 218 220 224 223 226 233 241 246 247 248 250 250 250 252 255 258 259 260 261 262 262 264 266 267 268 270 272 272 271 271 270 269 268
217 214 212 210 213 218 216 216 217 218 219 216 218 225 227 227 231 237 243 244 243 248 249 249 252 255 257 259 261 263 262 261 263 266 269 271 272 273 272 272 273 272 272 269
217 214 211 210 211 217 218 218 217 218 220 214 217 221 223 228 231 238 243 244 243 244 247 247 253 257 258 259 261 262 260 260 263 267 271 272 273 271 271 272 272 273 273 271
215 213 212 211 213 215 214 213 212 217 218 213 215 219 224 230 235 239 241 244 246 246 249 253 256 259 258 259 259 259 258 261 265 268 271 272 273 271 272 272 271 271 272 272
214 213 211 210 213 215 211 212 212 215 216 214 216 221 225 229 233 235 237 241 244 246 251 256 257 257 256 256 257 257 259 262 265 268 271 273 272 272 273 272 271 271 272 272
211 209 209 211 214 216 214 211 213 215 216 216 219 224 227 228 231 234 236 240 244 247 250 253 256 257 256 256 257 258 260 263 267 269 270 272 275 275 275 274 271 270 270 271
211 208 209 212 215 218 217 213 215 217 217 219 220 223 227 227 230 234 237 240 244 248 250 253 255 256 257 257 257 259 262 264 267 269 271 272 274 275 276 275 273 273 272 273
212 209 211 212 213 215 217 212 211 210 216 221 221 221 225 227 229 234 236 240 245 248 249 251 254 255 256 258 260 262 264 266 267 268 270 272 272 274 274 273 273 275 275 276
210 211 211 212 213 216 215 216 214 213 216 218 220 221 224 227 230 233 237 241 244 246 248 249 252 254 256 258 260 263 264 268 271 273 274 275 275 274 273 273 272 273 276 276
Height
5831 5836 5840 5845 5849 5854 5858 5863 5866 5870 5871 5870 5871 5873 5875 5875 5875 5875 5874 5874 5874 5875 5875 5876 5876 5875 5875 5875 5875 5875 5875 5875 5875 5875 5876 5877 5878 5879 5880 5880 5882 5883 5884 5885
5825 5830 5836 5840 5844 5848 5852 5857 5862 5866 5867 5866 5867 5869 5871 5872 5872 5872 5872 5871 5871 5872 5873 5873 5874 5874 5874 5874 5874 5874 5874 5873 5873 5873 5874 5875 5876 5876 5877 5878 5880 5881 5882 5884
5820 5827 5830 5834 5839 5843 5847 5852 5857 5861 5863 5862 5863 5865 5867 5868 5868 5869 5869 5869 5869 5869 5870 5871 5871 5872 5872 5872 5872 5872 5872 5872 5872 5872 5872 5873 5874 5874 5875 5877 5878 5879 5880 5882
5813 5820 5824 5828 5833 5838 5842 5847 5851 5855 5859 5859 5860 5861 5863 5863 5865 5865 5866 5866 5866 5866 5867 5868 5868 5869 5869 5870 5870 5870 5870 5870 5870 5870 5870 5871 5871 5872 5873 5874 5876 5877 5878 5880
5808 5814 5818 5823 5829 5833 5838 5842 5846 5849 5852 5855 5856 5858 5861 5860 5860 5861 5862 5863 5863 5863 5863 5865 5866 5866 5866 5867 5867 5867 5867 5867 5867 5867 5868 5868 5869 5870 5871 5872 5873 5875 5876 5878
5803 5808 5812 5817 5823 5827 5832 5837 5840 5843 5846 5848 5851 5854 5856 5856 5856 5857 5857 5860 5860 5860 5861 5862 5863 5863 5863 5864 5864 5864 5864 5865 5865 5865 5865 5866 5867 5868 5868 5869 5871 5872 5874 5875
5797 5802 5806 5811 5816 5821 5826 5831 5835 5838 5840 5843 5847 5848 5852 5853 5854 5854 5854 5856 5856 5857 5858 5859 5859 5860 5860 5861 5861 5861 5861 5862 5862 5862 5863 5863 5864 5865 5866 5867 5868 5870 5871 5873
5792 5797 5802 5806 5811 5816 5820 5826 5831 5835 5838 5840 5842 5843 5848 5849 5849 5850 5851 5852 5853 5854 5854 5855 5856 5857 5857 5857 5857 5858 5858 5859 5859 5859 5860 5860 5861 5862 5863 5864 5865 5867 5868 5870
5788 5793 5797 5801 5806 5811 5815 5820 5827 5832 5835 5838 5840 5841 5843 5844 5845 5846 5847 5849 5850 5850 5851 5852 5853 5853 5854 5854 5854 5854 5855 5856 5856 5856 5856 5857 5858 5859 5860 5860 5862 5863 5865 5867
5783 5789 5793 5796 5800 5805 5811 5815 5821 5825 5829 5833 5835 5837 5838 5839 5840 5842 5843 5845 5846 5847 5847 5848 5849 5850 5850 5850 5851 5851 5852 5852 5853 5853 5854 5854 5855 5856 5857 5858 5859 5860 5862 5863
5778 5783 5789 5791 5794 5799 5805 5810 5815 5820 5824 5829 5831 5835 5834 5833 5836 5838 5839 5840 5842 5843 5844 5844 5845 5846 5847 5847 5847 5847 5848 5849 5849 5850 5851 5851 5852 5853 5854 5855 5856 5857 5858 5859
5771 5777 5782 5787 5790 5795 5800 5805 5810 5815 5819 5823 5826 5830 5827 5829 5831 5833 5835 5837 5838 5839 5840 5841 5842 5843 5844 5844 5844 5844 5844 5845 5846 5847 5848 5848 5849 5850 5851 5852 5853 5854 5855 5856
5765 5770 5776 5782 5787 5790 5793 5799 5804 5810 5814 5818 5822 5827 5823 5824 5826 5828 5831 5833 5834 5836 5837 5838 5838 5839 5840 5840 5841 5841 5841 5842 5843 5844 5844 5845 5846 5847 5848 5849 5850 5851 5851 5852
5759 5764 5770 5777 5781 5785 5788 5793 5799 5804 5807 5813 5817 5820 5819 5820 5823 5825 5827 5828 5829 5831 5833 5833 5835 5835 5836 5837 5837 5838 5838 5839 5840 5840 5841 5841 5842 5843 5844 5845 5846 5847 5848 5848
5752 5758 5763 5769 5774 5780 5783 5787 5793 5797 5802 5808 5813 5816 5816 5816 5819 5820 5822 5824 5825 5827 5829 5830 5831 5831 5833 5834 5834 5835 5835 5836 5836 5837 5838 5838 5839 5840 5841 5841 5842 5843 5844 5844
5746 5752 5758 5763 5767 5773 5777 5782 5787 5792 5797 5802 5807 5811 5812 5810 5813 5816 5818 5820 5822 5823 5825 5826 5827 5829 5830 5830 5831 5832 5832 5833 5833 5834 5835 5835 5836 5837 5837 5837 5838 5839 5839 5840
5741 5747 5752 5758 5763 5766 5771 5777 5782 5786 5791 5796 5801 5805 5806 5807 5808 5811 5813 5815 5817 5819 5820 5822 5824 5825 5826 5827 5828 5828 5829 5830 5830 5831 5832 5832 5832 5833 5833 5833 5834 5835 5835 5835
5735 5741 5746 5752 5758 5761 5768 5772 5776 5781 5785 5789 5794 5797 5798 5801 5803 5806 5808 5810 5813 5815 5816 5818 5820 5821 5822 5823 5824 5825 5826 5826 5827 5828 5828 5829 5829 5829 5829 5829 5829 5830 5830 5830
5728 5734 5741 5747 5751 5756 5763 5766 5770 5774 5779 5783 5787 5790 5792 5794 5798 5801 5803 5806 5809 5811 5812 5814 5816 5817 5819 5820 5820 5821 5822 5822 5823 5824 5824 5825 5825 5825 5825 5824 5825 5825 5825 5825
5723 5729 5736 5741 5746 5750 5756 5760 5764 5769 5771 5777 5780 5783 5786 5789 5792 5795 5797 5801 5803 5806 5808 5809 5811 5813 5814 5815 5816 5817 5818 5819 5819 5820 5820 5820 5820 5820 5820 5820 5820 5820 5820 5820
5717 5723 5728 5734 5739 5744 5748 5753 5758 5763 5766 5770 5773 5777 5780 5784 5788 5791 5794 5796 5799 5802 5804 5806 5807 5808 5810 5811 5812 5812 5814 5815 5815 5815 5816 5815 5815 5815 5815 5815 5815 5815 5815 5815
5712 5718 5723 5728 5733 5739 5741 5746 5751 5755 5759 5764 5768 5771 5774 5779 5783 5787 5790 5793 5796 5798 5800 5801 5802 5804 5805 5806 5807 5808 5809 5810 5810 5811 5811 5810 5810 5810 5810 5810 5810 5810 5810 5809
5706 5713 5718 5723 5728 5731 5733 5739 5744 5750 5754 5758 5763 5766 5770 5775 5779 5782 5786 5789 5791 5793 5795 5796 5798 5799 5800 5801 5803 5804 5804 5805 5805 5806 5806 5805 5805 5805 5805 5805 5804 5804 5804 5804
5701 5706 5712 5717 5721 5724 5727 5733 5739 5745 5750 5753 5759 5763 5767 5771 5774 5778 5781 5784 5786 5788 5790 5792 5793 5794 5796 5797 5798 5799 5799 5800 5800 5800 5800 5800 5800 5800 5800 5799 5799 5799 5798 5798
5694 5700 5705 5710 5716 5719 5723 5728 5733 5738 5744 5749 5754 5759 5763 5766 5769 5773 5776 5779 5781 5783 5785 5787 5788 5790 5791 5792 5793 5793 5794 5794 5794 5794 5795 5795 5795 5795 5794 5794 5794 5793 5793 5793
5690 5696 5702 5706 5711 5715 5720 5725 5730 5735 5740 5744 5749 5754 5757 5760 5764 5768 5771 5773 5776 5778 5780 5782 5783 5784 5785 5786 5787 5788 5788 5789 5789 5789 5789 5789 5789 5789 5789 5788 5788 5788 5788 5788